Regional Weather Roundup
Issued by NWS

Home | Current Version | Previous Version | Text Only | Print | Product List | Glossary Off
Versions: 1 2 3 4 5 6 7 8 9 10 11 12 13 14 15 16 17 18 19 20 21 22 23 24 25 26 27 28 29 30 31 32 33 34 35 36 37 38 39 40 41 42 43 44 45 46 47 48 49 50

000
ASUS43 KLSX 281859
RWRMO

WEATHER SUMMARY FOR MISSOURI
NATIONAL WEATHER SERVICE SPRINGFIELD MO
200 PM CDT MON JUL 28 2014

NOTE: "FAIR" INDICATES FEW OR NO CLOUDS BELOW 12,000 FEET WITH NO
       SIGNIFICANT WEATHER AND/OR OBSTRUCTIONS TO VISIBILITY.
       CURRENT SKY AND/OR WEATHER CONDITIONS ARE NOT AVAILABLE FOR
       CHILLICOTHE AND FARMINGTON.

MOZ001>031-035>038-043-044-053-054-282000-
...NORTHERN AND WESTERN MISSOURI...

CITY           SKY/WX    TMP DP  RH WIND       PRES   REMARKS
KANSAS CTY INT PTSUNNY   78  60  53 N8        30.22F
KANSAS C DTWN  PTSUNNY   78  60  53 NW8       30.20F
LEE`S SUMMIT   MOSUNNY   80  58  46 N8        30.21F
ST JOSEPH      MOSUNNY   77  63  61 N10       30.23F
CHILLICOTHE      N/A     79  59  50 N8        30.21S
KIRKSVILLE     SUNNY     76  54  46 N12       30.20S

$$
MOZ066>068-077>081-088>096-101>105-282000-
...SOUTHWEST MISSOURI...

CITY           SKY/WX    TMP DP  RH WIND       PRES   REMARKS
SPRINGFIELD    SUNNY     82  57  42 N9        30.17F
JOPLIN         SUNNY     83  56  39 NW15      30.19F

$$
MOZ032>034-039>042-045>050-055>058-069>072-282000-
...CENTRAL MISSOURI...

CITY           SKY/WX    TMP DP  RH WIND       PRES   REMARKS
COLUMBIA       MOSUNNY   80  60  50 N17       30.16F
JEFFERSON CITY PTSUNNY   78  60  53 N9        30.14F
ROLLA          CLOUDY    78  58  49 NW10      30.13F
SEDALIA        PTSUNNY   79  62  56 NW12      30.19F
OSAGE BEACH    PTSUNNY   79  57  47 N9        30.15F

$$
MOZ051-052-059>065-282000-
...EAST CENTRAL MISSOURI...

CITY           SKY/WX    TMP DP  RH WIND       PRES   REMARKS
ST LOUIS INTL  PTSUNNY   79  61  53 N15       30.11F
SPIRIT OF STL  PTSUNNY   80  57  45 NW17      30.10F
ST CHARLES     CLOUDY    76  60  57 NW12      30.11F

$$
MOZ072>076-082>087-097>100-106>115-282000-
...SOUTH CENTRAL AND SOUTHEAST MISSOURI...

CITY           SKY/WX    TMP DP  RH WIND       PRES   REMARKS
CAPE GIRARDEAU MOSUNNY   81  62  52 N15       30.06F
FARMINGTON     CLOUDY    77  59  53 NW8G16    30.12F
POPLAR BLUFF   PTSUNNY   82  60  47 NW8       30.06F
WEST PLAINS    MOSUNNY   82  59  45 NW9       30.14F

$$


USA.gov is the U.S. government's official web portal to all federal, state and local government web resources and services.